Location: Red Deer
(52.2681°N, 113.8112°W)
Time: 11:45:52
(UTC-06:00)

EO-88 - Visible Passes

Search period start: 17 May 2022 00:00
Search period end: 27 May 2022 00:00
Orbit: 462 x 468 km, 97.3° (Epoch: 16 May)

Date Brightness Start Highest point End Pass type
(mag) Time Alt. Az. Time Alt. Az. Time Alt. Az.
17 May ? 22:16:18 10° SE 22:19:31 37° ENE 22:22:46 10° N visible
17 May ? 23:50:09 10° SW 23:52:45 20° W 23:55:21 10° NW visible
18 May ? 23:19:16 12° SSW 23:22:11 41° W 23:25:31 10° NNW visible
19 May ? 22:48:31 12° SSE 22:51:44 87° ENE 22:55:15 10° NNW visible
20 May ? 22:18:08 10° SE 22:21:22 39° ENE 22:24:40 10° N visible
20 May ? 23:52:05 10° SW 23:54:37 19° W 23:57:10 10° NW visible
21 May ? 23:20:52 11° SSW 23:23:57 39° W 23:27:16 10° NNW visible
22 May ? 22:50:01 11° SSE 22:53:23 89° WSW 22:56:54 10° NNW visible
23 May ? 22:19:38 10° SE 22:22:54 40° ENE 22:26:12 10° N visible
23 May ? 23:53:41 10° SW 23:56:09 18° W 23:58:39 10° NW visible
24 May ? 23:22:08 10° SSW 23:25:23 37° W 23:28:40 10° NNW visible
25 May ? 22:51:14 10° SSE 22:54:42 86° WSW 22:58:13 10° NNW visible
26 May ? 23:54:57 10° SW 23:57:22 18° W 23:59:49 10° NW visible
